Total_Precipitation_Accumulation
0.41 0.51 0.59 0.65 0.69 0.66 0.76 0.84 0.85 0.78 0.85 0.93 0.89 0.88 0.93 0.94 0.88 0.75 0.63 0.57 0.49 0.42 0.40 0.39 0.41 0.46 0.53 0.60 0.68 0.75 0.85 1.01 1.18 1.32 1.53 1.81 2.12 2.40
0.54 0.59 0.61 0.67 0.76 0.69 0.75 0.82 0.84 0.89 0.92 0.87 0.78 0.79 0.76 0.65 0.62 0.57 0.53 0.57 0.47 0.38 0.33 0.34 0.35 0.38 0.41 0.46 0.50 0.55 0.60 0.64 0.68 0.74 0.84 1.01 1.24 1.57
0.69 0.73 0.76 0.78 0.81 0.79 0.85 0.86 0.81 0.89 0.89 0.75 0.81 0.87 0.77 0.59 0.48 0.46 0.47 0.50 0.47 0.44 0.38 0.35 0.31 0.29 0.32 0.35 0.40 0.44 0.47 0.51 0.55 0.55 0.55 0.58 0.63 0.74
0.77 0.99 1.01 1.01 0.93 0.85 0.93 0.91 0.87 1.01 0.97 0.86 0.94 0.97 0.92 0.74 0.58 0.50 0.42 0.42 0.45 0.45 0.40 0.39 0.36 0.31 0.27 0.27 0.28 0.30 0.32 0.34 0.37 0.38 0.38 0.37 0.38 0.41
0.80 0.93 1.05 1.17 1.06 0.97 0.95 0.94 0.96 1.06 1.04 0.94 0.97 1.11 1.14 0.95 0.71 0.50 0.38 0.38 0.40 0.45 0.41 0.36 0.36 0.35 0.32 0.27 0.25 0.25 0.24 0.24 0.25 0.26 0.27 0.29 0.30 0.29
0.74 0.68 0.79 1.05 1.16 1.09 0.97 0.92 0.96 1.00 1.01 1.02 1.07 1.20 1.26 1.20 0.95 0.66 0.49 0.39 0.35 0.37 0.43 0.38 0.35 0.34 0.33 0.29 0.26 0.25 0.26 0.24 0.23 0.23 0.24 0.25 0.24 0.24
0.46 0.46 0.51 0.69 0.95 1.12 1.05 0.96 0.96 0.94 0.95 1.03 1.10 1.19 1.22 1.26 1.10 0.84 0.63 0.52 0.42 0.39 0.42 0.40 0.37 0.31 0.29 0.29 0.27 0.24 0.22 0.22 0.21 0.21 0.21 0.22 0.21 0.20
0.36 0.40 0.39 0.38 0.49 0.70 0.91 1.04 1.09 1.02 0.95 0.99 1.12 1.16 1.17 1.18 1.16 1.00 0.78 0.60 0.49 0.45 0.47 0.45 0.46 0.42 0.32 0.27 0.27 0.24 0.21 0.20 0.19 0.18 0.17 0.17 0.18 0.18
0.36 0.40 0.32 0.27 0.36 0.44 0.59 0.72 0.85 0.92 0.93 0.98 1.04 1.13 1.21 1.31 1.30 1.12 0.93 0.79 0.63 0.55 0.56 0.51 0.49 0.49 0.46 0.38 0.37 0.29 0.25 0.22 0.19 0.19 0.19 0.17 0.17 0.18
0.42 0.45 0.44 0.40 0.41 0.48 0.54 0.55 0.59 0.64 0.68 0.74 0.84 1.01 1.19 1.37 1.48 1.37 1.23 0.99 0.83 0.74 0.69 0.56 0.49 0.47 0.46 0.46 0.45 0.39 0.32 0.27 0.23 0.19 0.20 0.21 0.19 0.19
0.51 0.51 0.50 0.46 0.44 0.39 0.45 0.48 0.49 0.52 0.55 0.62 0.68 0.85 1.12 1.33 1.42 1.44 1.31 1.10 0.89 0.76 0.70 0.62 0.53 0.49 0.48 0.42 0.41 0.40 0.36 0.33 0.30 0.24 0.21 0.22 0.25 0.25
0.66 0.64 0.54 0.48 0.43 0.35 0.39 0.46 0.45 0.47 0.55 0.59 0.63 0.66 0.78 1.07 1.32 1.21 1.13 1.06 0.90 0.72 0.56 0.56 0.55 0.55 0.49 0.38 0.33 0.33 0.30 0.31 0.34 0.33 0.29 0.25 0.27 0.24
0.82 0.79 0.75 0.60 0.44 0.39 0.41 0.47 0.46 0.53 0.68 0.73 0.73 0.76 0.83 0.94 1.11 1.13 1.04 0.96 0.90 0.72 0.57 0.54 0.52 0.53 0.48 0.36 0.29 0.28 0.28 0.26 0.25 0.30 0.35 0.34 0.29 0.26
0.95 0.97 0.96 0.79 0.57 0.47 0.40 0.38 0.37 0.38 0.52 0.64 0.71 0.73 0.76 0.84 0.96 1.09 1.12 1.07 0.94 0.84 0.76 0.72 0.58 0.52 0.47 0.37 0.30 0.26 0.26 0.27 0.27 0.25 0.30 0.43 0.41 0.38
0.83 0.93 0.87 0.73 0.61 0.49 0.41 0.37 0.35 0.33 0.43 0.53 0.60 0.63 0.65 0.72 0.95 1.22 1.35 1.37 1.26 1.02 0.90 0.83 0.72 0.61 0.57 0.45 0.34 0.28 0.26 0.26 0.27 0.30 0.31 0.36 0.41 0.41
0.71 0.73 0.73 0.73 0.71 0.66 0.54 0.45 0.37 0.38 0.44 0.51 0.61 0.72 0.81 0.90 1.00 1.16 1.34 1.38 1.35 1.16 0.96 0.90 0.82 0.79 0.69 0.53 0.45 0.37 0.30 0.26 0.26 0.30 0.36 0.37 0.43 0.50
0.71 0.79 0.80 0.87 0.90 0.90 0.84 0.75 0.69 0.65 0.61 0.61 0.74 0.86 0.92 0.96 1.00 1.10 1.24 1.27 1.17 1.06 0.93 0.85 0.90 0.89 0.83 0.74 0.59 0.44 0.37 0.31 0.29 0.34 0.44 0.45 0.43 0.47
0.58 0.74 0.86 0.96 1.04 1.06 1.06 0.99 0.91 0.83 0.77 0.79 0.85 0.94 0.98 0.99 1.01 1.12 1.23 1.23 1.11 0.99 0.95 0.82 0.83 0.93 0.91 0.78 0.63 0.53 0.46 0.40 0.37 0.43 0.48 0.48 0.45 0.43
0.43 0.58 0.75 0.87 1.00 1.06 1.08 1.02 0.97 0.92 0.90 0.92 0.97 1.01 1.05 1.06 1.07 1.09 1.18 1.21 1.13 1.02 0.99 0.97 0.88 0.85 0.81 0.62 0.48 0.46 0.48 0.44 0.48 0.50 0.50 0.47 0.41 0.41
0.37 0.48 0.62 0.76 0.91 1.05 1.11 1.08 1.05 1.03 0.97 0.95 1.02 1.05 1.09 1.12 1.10 1.06 1.10 1.17 1.15 1.09 1.04 0.98 0.91 0.78 0.69 0.61 0.51 0.45 0.46 0.53 0.55 0.54 0.53 0.55 0.52 0.52
0.43 0.48 0.54 0.66 0.84 1.01 1.11 1.16 1.17 1.11 1.01 0.99 1.02 1.07 1.08 1.12 1.09 1.04 1.08 1.18 1.19 1.13 0.97 0.80 0.73 0.84 0.89 0.92 0.75 0.50 0.46 0.50 0.59 0.64 0.67 0.69 0.63 0.60
0.53 0.54 0.57 0.66 0.82 1.00 1.11 1.15 1.20 1.14 1.08 1.06 1.04 1.08 1.10 1.12 1.10 1.05 1.05 1.11 1.08 1.04 0.95 0.90 1.00 1.14 1.15 1.01 0.75 0.62 0.60 0.61 0.65 0.69 0.68 0.65 0.63 0.57
0.66 0.63 0.63 0.69 0.81 0.95 1.04 1.08 1.14 1.13 1.08 1.06 1.05 1.07 1.12 1.11 1.16 1.15 1.09 1.10 1.10 1.14 1.21 1.18 1.17 1.17 1.14 1.06 0.93 0.82 0.74 0.70 0.69 0.69 0.61 0.57 0.51 0.50